Location: Piotrkow Trybunalski
(51.4000°N, 19.6830°E)
Time: 15:24:54
(UTC+01:00)

Vanguard 2 - Pass Details

Date: 12 February 2023
Orbit: 553 x 2927 km, 32.9° (Epoch: 24 March)

Event Time Altitude Azimuth Distance (km) Brightness Sun altitude
Rises 02:17:15 0° 265° (W) 6,322 - -42.9°
Reaches altitude 10° 02:27:08 10° 235° (SW) 5,680 - -41.7°
Maximum altitude 02:30:18 11° 224° (SW) 5,668 - -41.3°
Drops below altitude 10° 02:33:30 10° 213° (SSW) 5,753 - -40.9°
Sets 02:44:02 0° 183° (S) 6,602 - -39.5°
